Location: Newark
(44.3248°N, 23.7839°E)
Time: 23:51:07
(UTC+00:00)

PCSat - Pass Details

Date: 20 April 2024
Orbit: 783 x 792 km, 67.1° (Epoch: 21 May)

Event Time Altitude Azimuth Distance (km) Brightness Sun altitude
Rises 02:01:48 0° 333° (NNW) 3,299 12.9 -15.4°
Reaches altitude 10° 02:04:23 10° 340° (NNW) 2,367 12.2 -15.0°
Maximum altitude 02:09:29 40° 50° (NE) 1,159 11.1 -14.3°
Drops below altitude 10° 02:14:33 10° 120° (ESE) 2,355 12.4 -13.5°
Sets 02:17:06 0° 127° (SE) 3,280 13.1 -13.1°
